Location: Hebron
(33.0265°N, 96.8636°W)
Time: 13:18:47
(UTC+00:00)

Cosmos 2228 Rocket - Pass Details

Date: 08 December 2021
Orbit: 618 x 651 km, 82.5° (Epoch: 29 January)

Event Time Altitude Azimuth Distance (km) Brightness Sun altitude
Rises 12:15:36 0° 359° (N) 2,947 6.3 -12.9°
Reaches altitude 10° 12:17:54 10° 5° (N) 2,039 5.6 -12.5°
Maximum altitude 12:22:19 52° 81° (E) 803 4.0 -11.6°
Drops below altitude 10° 12:26:45 10° 159° (SSE) 2,043 6.3 -10.7°
Sets 12:29:02 0° 164° (SSE) 2,952 7.1 -10.3°
